Bishopton, United Kingdom

5:27 AM GMT on February 24, 2017 (GMT +0000)
Glasgow

Weather History for EGPF - September, 2013

Change the Weather History Date:

Wednesday, September 18, 2013

  Actual Average Record
Temperature  
Mean Temperature 49 °F -  
Max Temperature 57 °F 56 °F 66 °F (1998)
Min Temperature 41 °F 44 °F 32 °F (2007)
Degree Days  
Heating Degree Days 16    
Moisture  
Dew Point 44 °F    
Average Humidity 83    
Maximum Humidity 100    
Minimum Humidity 63    
Precipitation  
Precipitation 0.00 in - - ()
Sea Level Pressure  
Sea Level Pressure 29.56 in    
Wind  
Wind Speed 7 mph ()    
Max Wind Speed 20 mph    
Max Gust Speed 30 mph    
Visibility 6.2 miles    
Events Rain    
Averages and records for this station are not official NWS values.
T = Trace of Precipitation, MM = Missing Value Source: Averaged Metar Reports

Daily Weather History Graph

Daily Weather History Graph

Search for Another Location

Airport or City:

Trip Planner

Search our weather history database for the weather conditions in past years. The results will help you decide how hot, cold, wet, or windy it might be!

Date:

Astronomy

Sep. 18, 2013 Rise Set
Actual Time 6:55 AM BST 7:27 PM BST
Civil Twilight 6:18 AM BST 8:04 PM BST
Nautical Twilight 5:33 AM BST 8:48 PM BST
Astronomical Twilight 4:45 AM BST 9:36 PM BST
Moon 6:40 PM BST (9/18) 5:36 AM BST (9/18)
Length of Visible Light 13h 46m
Length of Day
12h 31m
Waxing Gibbous, 99% of the Moon is Illuminated
Sep 18
Waxing Gibbous
Sep 19
Full
Sep 27
Last Quarter
Oct 5
New
Oct 12
First Quarter

Hourly Weather History & Observations

Time (BST) Temp. Windchill Dew Point Humidity Pressure Visibility Wind Dir Wind Speed Gust Speed Precip Events Conditions
12:20 AM 44.6 °F 43.1 °F 41.0 °F 87% 29.42 in - Variable 3.5 mph - N/A   Clear
12:50 AM 42.8 °F 39.3 °F 41.0 °F 93% 29.42 in 6.2 mi WSW 5.8 mph - N/A   Partly Cloudy
1:20 AM 42.8 °F 39.3 °F 41.0 °F 93% 29.42 in - WSW 5.8 mph - N/A   Clear
1:50 AM 42.8 °F - 41.0 °F 93% 29.42 in - Variable 2.3 mph - N/A   Clear
2:20 AM 41.0 °F 38.0 °F 39.2 °F 93% 29.42 in - WSW 4.6 mph - N/A   Clear
2:50 AM 42.8 °F 38.0 °F 41.0 °F 93% 29.44 in - WSW 8.1 mph - N/A   Clear
3:20 AM 42.8 °F 40.1 °F 41.0 °F 93% 29.44 in 6.2 mi WSW 4.6 mph - N/A   Partly Cloudy
3:50 AM 42.8 °F 41.1 °F 41.0 °F 93% 29.44 in 6.2 mi Variable 3.5 mph - N/A   Partly Cloudy
4:20 AM 42.8 °F 39.3 °F 41.0 °F 93% 29.44 in 6.2 mi West 5.8 mph - N/A   Partly Cloudy
4:50 AM 44.6 °F - 41.0 °F 87% 29.44 in 6.2 mi Variable 2.3 mph - N/A   Partly Cloudy
5:20 AM 44.6 °F - 41.0 °F 87% 29.44 in - Variable 2.3 mph - N/A   Clear
5:50 AM 42.8 °F 41.1 °F 41.0 °F 93% 29.44 in - Variable 3.5 mph - N/A   Clear
6:20 AM 41.0 °F - 39.2 °F 93% 29.47 in - Calm Calm - N/A   Clear
6:50 AM 41.0 °F 38.0 °F 41.0 °F 100% 29.47 in - West 4.6 mph - N/A   Clear
7:20 AM 44.6 °F 40.2 °F 42.8 °F 93% 29.47 in 6.2 mi West 8.1 mph - N/A   Partly Cloudy
7:50 AM 48.2 °F - 44.6 °F 87% 29.50 in 6.2 mi West 6.9 mph - N/A   Partly Cloudy
8:20 AM 48.2 °F - 44.6 °F 87% 29.50 in 6.2 mi WSW 5.8 mph - N/A   Scattered Clouds
8:50 AM 50.0 °F - 46.4 °F 87% 29.50 in 6.2 mi West 4.6 mph - N/A Rain Light Rain
9:20 AM 50.0 °F - 46.4 °F 87% 29.50 in 6.2 mi WSW 8.1 mph - N/A   Mostly Cloudy
9:50 AM 51.8 °F - 46.4 °F 82% 29.53 in 6.2 mi West 6.9 mph - N/A   Mostly Cloudy
10:20 AM 53.6 °F - 46.4 °F 77% 29.53 in 6.2 mi West 11.5 mph - N/A Rain Light Rain
10:50 AM 51.8 °F - 46.4 °F 82% 29.53 in 6.2 mi West 9.2 mph - N/A   Mostly Cloudy
11:20 AM 53.6 °F - 46.4 °F 77% 29.53 in 6.2 mi WSW 12.7 mph - N/A Rain Light Rain
11:50 AM 53.6 °F - 46.4 °F 77% 29.53 in 6.2 mi West 11.5 mph - N/A Rain Light Rain Showers
12:20 PM 51.8 °F - 44.6 °F 76% 29.53 in 6.2 mi West 16.1 mph - N/A   Mostly Cloudy
12:50 PM 53.6 °F - 44.6 °F 72% 29.56 in 6.2 mi WNW 16.1 mph - N/A Rain Light Rain Showers
1:20 PM 53.6 °F - 42.8 °F 67% 29.56 in 6.2 mi West 13.8 mph - N/A   Scattered Clouds
1:50 PM 53.6 °F - 46.4 °F 77% 29.56 in 6.2 mi WNW 10.4 mph - N/A   Mostly Cloudy
2:20 PM 57.2 °F - 44.6 °F 63% 29.56 in 6.2 mi WNW 15.0 mph - N/A   Mostly Cloudy
2:50 PM 55.4 °F - 44.6 °F 67% 29.59 in 6.2 mi West 16.1 mph 29.9 mph N/A   Mostly Cloudy
3:20 PM 55.4 °F - 44.6 °F 67% 29.59 in 6.2 mi West 18.4 mph - N/A   Scattered Clouds
3:50 PM 55.4 °F - 44.6 °F 67% 29.59 in 6.2 mi West 19.6 mph - N/A   Scattered Clouds
4:20 PM 55.4 °F - 44.6 °F 67% 29.59 in 6.2 mi WNW 15.0 mph - N/A   Mostly Cloudy
4:50 PM 55.4 °F - 44.6 °F 67% 29.62 in 6.2 mi West 12.7 mph - N/A   Mostly Cloudy
5:20 PM 55.4 °F - 44.6 °F 67% 29.62 in 6.2 mi West 12.7 mph - N/A   Mostly Cloudy
5:50 PM 53.6 °F - 44.6 °F 72% 29.65 in 6.2 mi West 13.8 mph - N/A   Mostly Cloudy
6:20 PM 51.8 °F - 44.6 °F 76% 29.65 in 6.2 mi WNW 12.7 mph 25.3 mph N/A   Mostly Cloudy
6:50 PM 51.8 °F - 44.6 °F 76% 29.65 in 6.2 mi West 4.6 mph - N/A   Mostly Cloudy
7:20 PM 50.0 °F - 44.6 °F 82% 29.68 in 6.2 mi WSW 10.4 mph - N/A   Overcast
7:50 PM 50.0 °F - 44.6 °F 82% 29.68 in 6.2 mi West 11.5 mph - N/A   Mostly Cloudy
8:20 PM 50.0 °F - 44.6 °F 82% 29.71 in 6.2 mi West 12.7 mph - N/A   Mostly Cloudy
8:50 PM 50.0 °F - 46.4 °F 87% 29.71 in 6.2 mi West 12.7 mph - N/A   Mostly Cloudy
9:20 PM 48.2 °F - 44.6 °F 87% 29.71 in 6.2 mi WSW 9.2 mph - N/A   Mostly Cloudy
9:50 PM 46.4 °F 42.9 °F 44.6 °F 93% 29.71 in 6.2 mi West 6.9 mph - N/A   Partly Cloudy
10:20 PM 46.4 °F 42.4 °F 44.6 °F 93% 29.74 in 6.2 mi West 8.1 mph - N/A   Light Drizzle
10:50 PM 46.4 °F 45.2 °F 42.8 °F 87% 29.74 in 6.2 mi Variable 3.5 mph - N/A   Scattered Clouds
11:20 PM 46.4 °F - 44.6 °F 93% 29.74 in 6.2 mi Variable 2.3 mph - N/A   Scattered Clouds
11:50 PM 44.6 °F 43.1 °F 42.8 °F 93% 29.74 in 6.2 mi Variable 3.5 mph - N/A   Partly Cloudy